Weather History for KONZ - January, 2013

Change the Weather History Date:

Thursday, January 24, 2013

  Actual Average (KDTW) Record (KDTW)
Temperature  
Mean Temperature 16 °F 25 °F  
Max Temperature 19 °F 32 °F 61 °F (1909)
Min Temperature 12 °F 19 °F -13 °F (1963)
Degree Days  
Heating Degree Days 50 40  
Month to date heating degree days 950  
Since 1 July heating degree days 3247  
Cooling Degree Days 0 0  
Month to date cooling degree days 0  
Year to date cooling degree days 0  
Moisture  
Dew Point 4 °F    
Average Humidity 63    
Maximum Humidity 86    
Minimum Humidity 38    
Precipitation  
Precipitation 0.00 in 0.06 in 0.49 in (1918)
Month to date precipitation 1.55  
Year to date precipitation 1.55  
Snow  
Snow 0.00 in 0.40 in 3.60 in (1918)
Month to date snowfall 9.8  
Since 1 July snowfall 21.0  
Snow Depth -    
Sea Level Pressure  
Sea Level Pressure 30.42 in    
Wind  
Wind Speed 7 mph (NNW)    
Max Wind Speed 13 mph    
Max Gust Speed 18 mph    
Visibility 10 miles    
Events Snow    
T = Trace of Precipitation, MM = Missing Value Source: NWS Daily Summary

Daily Weather History Graph

Daily Weather History Graph

Search for Another Location

Airport or City:

Trip Planner

Search our weather history database for the weather conditions in past years. The results will help you decide how hot, cold, wet, or windy it might be!

Date:

Astronomy

Jan. 24, 2013 Rise Set
Actual Time 7:52 AM EST 5:37 PM EST
Civil Twilight 7:22 AM EST 6:07 PM EST
Nautical Twilight 6:48 AM EST 6:41 PM EST
Astronomical Twilight 6:15 AM EST 7:14 PM EST
Moon 3:38 PM EST (1/24) 5:50 AM EST (1/24)
Length of Visible Light 10h 45m
Length of Day
9h 44m
Waxing Gibbous, 94% of the Moon is Illuminated
Jan 24
Waxing Gibbous
Jan 26
Full
Feb 3
Last Quarter
Feb 10
New
Feb 17
First Quarter

Hourly Weather History & Observations

Time (EST) Temp. Windchill Dew Point Humidity Pressure Visibility Wind Dir Wind Speed Gust Speed Precip Events Conditions
12:15 AM 15.8 °F 10.2 °F 10.4 °F 79% 30.08 in 4.0 mi NW 3.5 mph - N/A Snow Light Snow
12:34 AM 15.8 °F 6.1 °F 10.4 °F 79% 30.09 in 7.0 mi NW 6.9 mph - N/A Snow Light Snow
12:54 AM 15.8 °F 6.1 °F 10.4 °F 79% 30.09 in 10.0 mi NW 6.9 mph - N/A Snow Light Snow
1:14 AM 14.0 °F 5.1 °F 10.4 °F 86% 30.10 in 10.0 mi NNW 5.8 mph - N/A   Overcast
1:34 AM 14.0 °F 2.0 °F 10.4 °F 86% 30.12 in 10.0 mi NNW 9.2 mph - N/A   Scattered Clouds
1:54 AM 15.8 °F 4.2 °F 10.4 °F 79% 30.13 in 5.0 mi NNW 9.2 mph - N/A Snow Light Snow
2:14 AM 14.0 °F 2.0 °F 10.4 °F 86% 30.14 in 4.0 mi NNW 9.2 mph - N/A Snow Light Snow
2:34 AM 14.0 °F 2.0 °F 10.4 °F 86% 30.16 in 7.0 mi NNW 9.2 mph - N/A   Mostly Cloudy
2:54 AM 12.2 °F -0.2 °F 8.6 °F 85% 30.18 in 10.0 mi NNW 9.2 mph - N/A   Scattered Clouds
3:14 AM 14.0 °F 2.0 °F 8.6 °F 79% 30.19 in 10.0 mi NNW 9.2 mph - N/A   Clear
3:34 AM 14.0 °F 1.2 °F 6.8 °F 73% 30.21 in 10.0 mi NNW 10.4 mph - N/A   Clear
3:54 AM 12.2 °F -1.0 °F 6.8 °F 79% 30.22 in 10.0 mi NNW 10.4 mph 18.4 mph N/A   Clear
4:14 AM 12.2 °F -1.8 °F 6.8 °F 79% 30.24 in 10.0 mi NNW 11.5 mph - N/A   Clear
4:34 AM 12.2 °F -1.8 °F 6.8 °F 79% 30.25 in 10.0 mi NW 11.5 mph - N/A   Clear
4:54 AM 12.2 °F -2.5 °F 6.8 °F 79% 30.26 in 10.0 mi NNW 12.7 mph 17.3 mph N/A   Clear
5:14 AM 12.2 °F -0.2 °F 6.8 °F 79% 30.28 in 10.0 mi NW 9.2 mph - N/A   Clear
5:34 AM 12.2 °F -0.2 °F 6.8 °F 79% 30.30 in 10.0 mi NW 9.2 mph - N/A   Clear
5:54 AM 12.2 °F -1.8 °F 6.8 °F 79% 30.31 in 10.0 mi NW 11.5 mph - N/A   Scattered Clouds
6:14 AM 12.2 °F -1.0 °F 6.8 °F 79% 30.33 in 10.0 mi NW 10.4 mph - N/A   Overcast
6:34 AM 12.2 °F -2.5 °F 6.8 °F 79% 30.34 in 10.0 mi NW 12.7 mph - N/A   Overcast
6:54 AM 12.2 °F -1.8 °F 6.8 °F 79% 30.37 in 5.0 mi NW 11.5 mph - N/A Snow Light Snow
7:14 AM 12.2 °F -0.2 °F 6.8 °F 79% 30.38 in 7.0 mi NNW 9.2 mph - N/A   Overcast
7:35 AM 12.2 °F -1.0 °F 6.8 °F 79% 30.40 in 10.0 mi NW 10.4 mph - N/A   Overcast
7:54 AM 12.2 °F -1.0 °F 6.8 °F 79% 30.41 in 10.0 mi NNW 10.4 mph - N/A   Overcast
8:14 AM 12.2 °F -0.2 °F 6.8 °F 79% 30.43 in 10.0 mi NNW 9.2 mph - N/A   Overcast
8:34 AM 12.2 °F -0.2 °F 6.8 °F 79% 30.44 in 10.0 mi NNW 9.2 mph - N/A   Overcast
8:54 AM 12.2 °F 0.7 °F 5.0 °F 73% 30.46 in 10.0 mi NNW 8.1 mph - N/A   Scattered Clouds
9:14 AM 12.2 °F 1.7 °F 6.8 °F 79% 30.47 in 10.0 mi NNW 6.9 mph - N/A   Clear
9:34 AM 12.2 °F 2.9 °F 6.8 °F 79% 30.48 in 10.0 mi North 5.8 mph - N/A   Clear
9:54 AM 14.0 °F 2.9 °F 6.8 °F 73% 30.50 in 10.0 mi NNW 8.1 mph - N/A   Clear
10:14 AM 15.8 °F 3.4 °F 6.8 °F 68% 30.52 in 10.0 mi NNW 10.4 mph - N/A   Clear
10:34 AM 15.8 °F 5.1 °F 6.8 °F 68% 30.52 in 10.0 mi North 8.1 mph - N/A   Clear
10:54 AM 15.8 °F 7.2 °F 6.8 °F 68% 30.54 in 10.0 mi NNW 5.8 mph - N/A   Clear
11:14 AM 17.6 °F 7.3 °F 6.8 °F 63% 30.55 in 10.0 mi NNW 8.1 mph - N/A   Clear
11:34 AM 17.6 °F 8.2 °F 6.8 °F 63% 30.55 in 10.0 mi NNW 6.9 mph - N/A   Clear
11:54 AM 17.6 °F 10.7 °F 3.2 °F 53% 30.55 in 10.0 mi North 4.6 mph - N/A   Clear
12:15 PM 19.4 °F 14.3 °F 3.2 °F 49% 30.54 in 10.0 mi North 3.5 mph - N/A   Clear
12:34 PM 19.4 °F 10.4 °F 3.2 °F 49% 30.53 in 10.0 mi NW 6.9 mph - N/A   Clear
12:54 PM 19.4 °F 14.3 °F -0.4 °F 42% 30.53 in 10.0 mi North 3.5 mph - N/A   Clear
1:14 PM 19.4 °F 11.5 °F -0.4 °F 42% 30.53 in 10.0 mi NNW 5.8 mph - N/A   Clear
1:34 PM 19.4 °F 12.8 °F -0.4 °F 42% 30.53 in 10.0 mi NNW 4.6 mph - N/A   Clear
1:54 PM 19.4 °F - -0.4 °F 42% 30.53 in 10.0 mi Calm Calm - N/A   Clear
2:14 PM 19.4 °F 14.3 °F -0.4 °F 42% 30.53 in 10.0 mi NW 3.5 mph - N/A   Clear
2:34 PM 19.4 °F 9.5 °F -0.4 °F 42% 30.53 in 10.0 mi WNW 8.1 mph - N/A   Clear
2:54 PM 19.4 °F 10.4 °F -2.2 °F 39% 30.53 in 10.0 mi NW 6.9 mph - N/A   Clear
3:14 PM 19.4 °F 12.8 °F -2.2 °F 39% 30.53 in 10.0 mi West 4.6 mph - N/A   Clear
3:34 PM 19.4 °F 10.4 °F -2.2 °F 39% 30.54 in 10.0 mi NW 6.9 mph - N/A   Clear
3:54 PM 19.4 °F 12.8 °F -0.4 °F 42% 30.53 in 10.0 mi NNW 4.6 mph - N/A   Clear
4:14 PM 19.4 °F 11.5 °F -2.2 °F 39% 30.54 in 10.0 mi WNW 5.8 mph - N/A   Clear
4:34 PM 19.4 °F 11.5 °F -2.2 °F 39% 30.54 in 10.0 mi NW 5.8 mph - N/A   Clear
4:54 PM 17.6 °F 12.3 °F -2.2 °F 42% 30.54 in 10.0 mi West 3.5 mph - N/A   Clear
5:14 PM 15.8 °F 8.6 °F -2.2 °F 45% 30.54 in 10.0 mi NNW 4.6 mph - N/A   Clear
5:35 PM 15.8 °F - -2.2 °F 45% 30.55 in 10.0 mi Calm Calm - N/A   Clear
5:54 PM 15.8 °F - -2.2 °F 45% 30.54 in 10.0 mi Calm Calm - N/A   Clear
6:14 PM 17.6 °F - -4.0 °F 38% 30.54 in 10.0 mi Calm Calm - N/A   Clear
6:34 PM 15.8 °F - -4.0 °F 41% 30.54 in 10.0 mi Calm Calm - N/A   Clear
6:54 PM 15.8 °F - -2.2 °F 45% 30.54 in 10.0 mi Calm Calm - N/A   Clear
7:14 PM 15.8 °F - -2.2 °F 45% 30.54 in 10.0 mi Calm Calm - N/A   Clear
7:34 PM 15.8 °F - 1.4 °F 53% 30.54 in 10.0 mi Calm Calm - N/A   Clear
7:54 PM 15.8 °F 10.2 °F 1.4 °F 53% 30.53 in 10.0 mi West 3.5 mph - N/A   Clear
8:14 PM 12.2 °F 6.1 °F 1.4 °F 62% 30.53 in 10.0 mi NE 3.5 mph - N/A   Clear
8:34 PM 12.2 °F 6.1 °F 5.0 °F 73% 30.51 in 10.0 mi ENE 3.5 mph - N/A   Clear
8:54 PM 14.0 °F 8.2 °F 5.0 °F 67% 30.51 in 10.0 mi ENE 3.5 mph - N/A   Clear
9:14 PM 15.8 °F 8.6 °F 5.0 °F 62% 30.51 in 10.0 mi ENE 4.6 mph - N/A   Clear
9:34 PM 15.8 °F - 3.2 °F 58% 30.51 in 10.0 mi Calm Calm - N/A   Clear
9:54 PM 15.8 °F - 5.0 °F 62% 30.51 in 10.0 mi Calm Calm - N/A   Clear
10:15 PM 15.8 °F 10.2 °F 5.0 °F 62% 30.50 in 10.0 mi ENE 3.5 mph - N/A   Clear
10:34 PM 15.8 °F 10.2 °F 5.0 °F 62% 30.50 in 10.0 mi ENE 3.5 mph - N/A   Clear
10:54 PM 15.8 °F 7.2 °F 3.2 °F 58% 30.50 in 10.0 mi ENE 5.8 mph - N/A   Clear
11:14 PM 15.8 °F 7.2 °F 3.2 °F 58% 30.50 in 10.0 mi East 5.8 mph - N/A   Clear
11:34 PM 15.8 °F 8.6 °F 5.0 °F 62% 30.49 in 10.0 mi East 4.6 mph - N/A   Clear
11:54 PM 15.8 °F 8.6 °F 3.2 °F 58% 30.48 in 10.0 mi East 4.6 mph - N/A   Clear